When you browse on this site, cookies collect data to enhance your experience and personalize the content and advertising you see.
Visit our Privacy Policy to learn more. By continuing to use the site, you agree to this use of cookies and data.
  • In Romania
  • List of Countries
  • For 7 days
  • Water Temperature
  • Weather Map
  • Weather Widgets
  • user-avatar
    Login

    Hourly Weather Birmingham

    Today, 25 May, Monday

    Time Temperature Precipitation Wind Pressure Humidity
    00:00 +8°C° 0 mm 2 mps 762 mmHg 75%
    01:00 +8°C° 0 mm 2 mps 762 mmHg 76%
    02:00 +8°C° 0 mm 1 mps 762 mmHg 76%
    03:00 +7°C° 0 mm 1 mps 762 mmHg 77%
    04:00 +8°C° 0 mm 1 mps 762 mmHg 75%
    05:00 +9°C° 0 mm 1 mps 762 mmHg 73%
    06:00 +11°C° 0 mm 1 mps 762 mmHg 72%
    07:00 +12°C° 0 mm 1 mps 762 mmHg 67%
    08:00 +14°C° 0 mm 2 mps 762 mmHg 62%
    09:00 +16°C° 0 mm 2 mps 762 mmHg 56%
    10:00 +17°C° 0 mm 3 mps 762 mmHg 55%
    11:00 +18°C° 0 mm 3 mps 762 mmHg 54%
    12:00 +20°C° 0 mm 4 mps 762 mmHg 54%
    13:00 +20°C° 0 mm 4 mps 762 mmHg 54%
    14:00 +20°C° 0 mm 4 mps 762 mmHg 54%
    15:00 +21°C° 0 mm 4 mps 762 mmHg 54%
    16:00 +20°C° 0 mm 4 mps 762 mmHg 59%
    17:00 +19°C° 0 mm 3 mps 762 mmHg 64%
    18:00 +18°C° 0 mm 3 mps 762 mmHg 70%
    19:00 +17°C° 0 mm 3 mps 762 mmHg 73%
    20:00 +14°C° 0 mm 3 mps 762 mmHg 76%
    21:00 +13°C° 0 mm 2 mps 763 mmHg 79%
    22:00 +12°C° 0 mm 2 mps 763 mmHg 81%
    23:00 +12°C° 0 mm 2 mps 763 mmHg 82%

    Tomorrow, 26 May, Tuesday

    Time Temperature Precipitation Wind Pressure Humidity
    00:00 +11°C° 0 mm 1 mps 762 mmHg 84%
    01:00 +11°C° 0 mm 1 mps 763 mmHg 82%
    02:00 +11°C° 0 mm 1 mps 763 mmHg 80%
    03:00 +10°C° 0 mm 2 mps 763 mmHg 77%
    04:00 +12°C° 0 mm 2 mps 763 mmHg 76%
    05:00 +12°C° 0 mm 2 mps 763 mmHg 76%
    06:00 +13°C° 0 mm 2 mps 763 mmHg 75%
    07:00 +14°C° 0 mm 2 mps 763 mmHg 72%
    08:00 +15°C° 0 mm 2 mps 763 mmHg 70%
    09:00 +15°C° 0 mm 2 mps 764 mmHg 67%
    10:00 +17°C° 0 mm 2 mps 764 mmHg 67%
    11:00 +18°C° 0 mm 2 mps 763 mmHg 66%
    12:00 +19°C° 0 mm 2 mps 763 mmHg 66%
    13:00 +19°C° 0 mm 2 mps 763 mmHg 66%
    14:00 +20°C° 0 mm 2 mps 763 mmHg 67%
    15:00 +20°C° 0 mm 2 mps 763 mmHg 68%
    16:00 +20°C° 0 mm 2 mps 763 mmHg 71%
    17:00 +19°C° 0 mm 3 mps 763 mmHg 73%
    18:00 +19°C° 0 mm 3 mps 763 mmHg 76%
    19:00 +17°C° 0 mm 3 mps 763 mmHg 78%
    20:00 +14°C° 0 mm 3 mps 763 mmHg 79%
    21:00 +13°C° 0 mm 3 mps 764 mmHg 81%
    22:00 +12°C° 0 mm 3 mps 764 mmHg 81%
    23:00 +11°C° 0 mm 3 mps 764 mmHg 80%

    Day after tomorrow, 27 May, Wednesday

    Time Temperature Precipitation Wind Pressure Humidity
    00:00 +11°C° 0 mm 3 mps 764 mmHg 80%
    01:00 +10°C° 0 mm 3 mps 764 mmHg 79%
    02:00 +9°C° 0 mm 3 mps 764 mmHg 79%
    03:00 +8°C° 0 mm 2 mps 763 mmHg 78%
    04:00 +9°C° 0 mm 3 mps 764 mmHg 79%
    05:00 +9°C° 0 mm 3 mps 764 mmHg 79%
    06:00 +10°C° 0 mm 3 mps 764 mmHg 79%
    07:00 +12°C° 0 mm 3 mps 764 mmHg 75%
    08:00 +13°C° 0 mm 3 mps 764 mmHg 70%
    09:00 +16°C° 0 mm 2 mps 764 mmHg 66%
    10:00 +17°C° 0 mm 2 mps 764 mmHg 62%
    11:00 +18°C° 0 mm 2 mps 764 mmHg 59%
    12:00 +19°C° 0 mm 2 mps 764 mmHg 55%
    13:00 +20°C° 0 mm 2 mps 764 mmHg 55%
    14:00 +20°C° 0 mm 2 mps 764 mmHg 55%
    15:00 +20°C° 0 mm 2 mps 764 mmHg 54%
    16:00 +20°C° 0 mm 2 mps 764 mmHg 58%
    17:00 +20°C° 0 mm 2 mps 764 mmHg 63%
    18:00 +19°C° 0 mm 2 mps 764 mmHg 67%
    19:00 +17°C° 0 mm 2 mps 764 mmHg 72%
    20:00 +15°C° 0 mm 2 mps 764 mmHg 77%
    21:00 +14°C° 0 mm 2 mps 764 mmHg 83%
    22:00 +13°C° 0 mm 1 mps 764 mmHg 84%
    23:00 +12°C° 0 mm 1 mps 764 mmHg 86%

    28 May, Thursday

    Time Temperature Precipitation Wind Pressure Humidity
    00:00 +12°C° 0 mm 1 mps 764 mmHg 87%
    01:00 +11°C° 0 mm 1 mps 764 mmHg 88%
    02:00 +11°C° 0 mm 1 mps 763 mmHg 90%
    03:00 +10°C° 0 mm 1 mps 763 mmHg 91%
    04:00 +11°C° 0 mm 1 mps 763 mmHg 88%
    05:00 +12°C° 0 mm 1 mps 763 mmHg 86%
    06:00 +12°C° 0 mm 1 mps 763 mmHg 83%
    07:00 +14°C° 0 mm 2 mps 763 mmHg 76%
    08:00 +15°C° 0 mm 2 mps 762 mmHg 70%
    09:00 +17°C° 0 mm 2 mps 762 mmHg 63%
    10:00 +18°C° 0 mm 2 mps 762 mmHg 60%
    11:00 +19°C° 0 mm 2 mps 762 mmHg 57%
    12:00 +20°C° 0 mm 2 mps 761 mmHg 55%
    13:00 +20°C° 0 mm 2 mps 761 mmHg 55%
    14:00 +21°C° 0 mm 2 mps 761 mmHg 55%
    15:00 +21°C° 0 mm 2 mps 760 mmHg 55%
    16:00 +20°C° 0 mm 2 mps 760 mmHg 59%
    17:00 +20°C° 0 mm 2 mps 760 mmHg 64%
    18:00 +20°C° 0 mm 2 mps 760 mmHg 68%
    19:00 +18°C° 0 mm 2 mps 759 mmHg 72%
    20:00 +16°C° 0 mm 2 mps 759 mmHg 77%
    21:00 +14°C° 0 mm 1 mps 759 mmHg 81%
    22:00 +14°C° 0 mm 1 mps 759 mmHg 82%
    23:00 +13°C° 0 mm 1 mps 759 mmHg 83%

    29 May, Friday

    Time Temperature Precipitation Wind Pressure Humidity
    00:00 +12°C° 0 mm 1 mps 759 mmHg 84%
    01:00 +12°C° 0 mm 1 mps 759 mmHg 83%
    02:00 +11°C° 0 mm 1 mps 759 mmHg 81%
    03:00 +10°C° 0 mm 1 mps 759 mmHg 79%
    04:00 +11°C° 0 mm 1 mps 758 mmHg 77%
    05:00 +12°C° 0 mm 1 mps 758 mmHg 74%
    06:00 +13°C° 0 mm 1 mps 758 mmHg 71%
    07:00 +14°C° 0 mm 1 mps 758 mmHg 68%
    08:00 +16°C° 0 mm 2 mps 758 mmHg 65%
    09:00 +17°C° 0 mm 2 mps 758 mmHg 63%
    10:00 +18°C° 0 mm 2 mps 758 mmHg 62%
    11:00 +19°C° 0 mm 3 mps 757 mmHg 61%
    12:00 +20°C° 0 mm 3 mps 757 mmHg 60%
    13:00 +20°C° 0 mm 3 mps 757 mmHg 61%
    14:00 +20°C° 0 mm 3 mps 756 mmHg 62%
    15:00 +20°C° 0 mm 3 mps 756 mmHg 63%
    16:00 +20°C° 0 mm 3 mps 756 mmHg 66%
    17:00 +19°C° 0 mm 3 mps 756 mmHg 69%
    18:00 +19°C° 0 mm 3 mps 755 mmHg 72%
    19:00 +17°C° 0 mm 2 mps 755 mmHg 77%
    20:00 +16°C° 0 mm 2 mps 755 mmHg 81%
    21:00 +14°C° 0 mm 2 mps 755 mmHg 85%
    22:00 +13°C° 0 mm 2 mps 756 mmHg 84%
    23:00 +12°C° 0 mm 2 mps 756 mmHg 82%

    30 May, Saturday

    Time Temperature Precipitation Wind Pressure Humidity
    00:00 +10°C° 0 mm 2 mps 756 mmHg 81%
    01:00 +10°C° 0 mm 2 mps 756 mmHg 79%
    02:00 +9°C° 0 mm 2 mps 756 mmHg 77%
    03:00 +8°C° 0 mm 2 mps 756 mmHg 75%
    04:00 +9°C° 0 mm 2 mps 756 mmHg 75%
    05:00 +9°C° 0 mm 2 mps 756 mmHg 75%
    06:00 +10°C° 0 mm 2 mps 756 mmHg 75%
    07:00 +12°C° 0 mm 2 mps 756 mmHg 71%
    08:00 +14°C° 0 mm 2 mps 756 mmHg 68%
    09:00 +14°C° 0 mm 3 mps 756 mmHg 65%
    10:00 +16°C° 0 mm 3 mps 756 mmHg 63%
    11:00 +18°C° 0 mm 3 mps 756 mmHg 61%
    12:00 +19°C° 0 mm 3 mps 756 mmHg 59%
    13:00 +19°C° 0 mm 3 mps 755 mmHg 60%
    14:00 +19°C° 0 mm 3 mps 755 mmHg 60%
    15:00 +19°C° 0 mm 3 mps 755 mmHg 61%
    16:00 +19°C° 0 mm 3 mps 755 mmHg 64%
    17:00 +19°C° 0 mm 3 mps 754 mmHg 68%
    18:00 +18°C° 0 mm 2 mps 754 mmHg 71%
    19:00 +17°C° 0 mm 3 mps 754 mmHg 76%
    20:00 +14°C° 0 mm 3 mps 755 mmHg 80%
    21:00 +13°C° 0 mm 3 mps 755 mmHg 85%
    22:00 +12°C° 0 mm 3 mps 755 mmHg 86%
    23:00 +11°C° 0 mm 3 mps 755 mmHg 88%
    Show more